| time (UTC) | temp F | wind direction | speed MPH | gust MPH | rain 1hr in | rain 24hr in | rain mn in | humidity % | barometer mb |
| 20260901034605 | 56 | 186 | 0.0 | 1.0 | 0.00 | 0.00 | 0.00 | 88 | 1015.9 |
| 20260901033057 | 56 | 186 | 0.0 | 1.0 | 0.00 | 0.00 | 0.00 | 87 | 1015.9 |
| 20260901031559 | 56 | 186 | 0.0 | 1.0 | 0.00 | 0.00 | 0.00 | 87 | 1015.8 |
| 20260901030056 | 57 | 186 | 0.0 | 2.0 | 0.00 | 0.00 | 0.00 | 87 | 1015.8 |
| 20260901024603 | 57 | 186 | 0.0 | 1.0 | 0.00 | 0.00 | 0.00 | 87 | 1015.8 |
| 20260901023054 | 57 | 186 | 1.0 | 2.0 | 0.00 | 0.00 | 0.00 | 87 | 1015.8 |
| 20260901021616 | 58 | 186 | 0.0 | 1.0 | 0.00 | 0.00 | 0.00 | 86 | 1015.9 |
| 20260901020111 | 59 | 186 | 0.0 | 2.0 | 0.00 | 0.00 | 0.00 | 85 | 1015.9 |
| 20260901014557 | 60 | 186 | 0.0 | 2.0 | 0.00 | 0.01 | 0.00 | 84 | 1015.8 |
| 20260901013104 | 60 | 186 | 0.0 | 2.0 | 0.00 | 0.01 | 0.00 | 85 | 1015.8 |
| 20260901011554 | 60 | 186 | 0.0 | 1.0 | 0.00 | 0.01 | 0.00 | 84 | 1015.9 |
| 20260901010052 | 60 | 186 | 1.0 | 3.0 | 0.00 | 0.01 | 0.00 | 84 | 1015.8 |
| 20260901004552 | 60 | 179 | 0.0 | 1.0 | 0.00 | 0.01 | 0.00 | 84 | 1015.8 |
| 20260901003054 | 61 | 179 | 0.0 | 1.0 | 0.00 | 0.01 | 0.00 | 83 | 1015.9 |
| 20260901001606 | 61 | 179 | 0.0 | 0.0 | 0.00 | 0.01 | 0.00 | 83 | 1015.7 |
| 20260901000056 | 62 | 179 | 0.0 | 1.0 | 0.00 | 0.01 | 0.00 | 81 | 1015.6 |
| 20260831234602 | 63 | 179 | 0.0 | 1.0 | 0.00 | 0.01 | 0.00 | 80 | 1015.6 |
| 20260831233050 | 64 | 179 | 0.0 | 2.0 | 0.00 | 0.01 | 0.00 | 77 | 1015.6 |
| 20260831231548 | 65 | 177 | 0.0 | 2.0 | 0.00 | 0.01 | 0.00 | 75 | 1015.8 |
| 20260831230046 | 66 | 177 | 0.0 | 2.0 | 0.00 | 0.01 | 0.00 | 73 | 1016.0 |
| 20260831224544 | 67 | 177 | 0.0 | 2.0 | 0.00 | 0.01 | 0.00 | 70 | 1015.9 |
| 20260831223045 | 68 | 176 | 1.0 | 3.0 | 0.00 | 0.01 | 0.00 | 68 | 1015.8 |
| 20260831221543 | 69 | 174 | 0.0 | 3.0 | 0.00 | 0.01 | 0.00 | 64 | 1015.9 |
| 20260831220058 | 70 | 163 | 3.0 | 7.0 | 0.00 | 0.01 | 0.00 | 62 | 1015.8 |
| 20260831214546 | 70 | 161 | 1.0 | 5.0 | 0.00 | 0.01 | 0.00 | 61 | 1015.7 |
| 20260831213042 | 71 | 154 | 1.0 | 7.0 | 0.00 | 0.01 | 0.00 | 59 | 1015.8 |
| 20260831211548 | 72 | 177 | 1.0 | 6.0 | 0.00 | 0.01 | 0.00 | 58 | 1015.7 |
| 20260831210048 | 73 | 158 | 1.0 | 7.0 | 0.00 | 0.01 | 0.00 | 56 | 1015.8 |
| 20260831204540 | 74 | 236 | 2.0 | 7.0 | 0.00 | 0.01 | 0.00 | 53 | 1015.8 |
| 20260831203039 | 74 | 44 | 2.0 | 6.0 | 0.00 | 0.01 | 0.00 | 54 | 1015.9 |
| 20260831201546 | 73 | 212 | 1.0 | 8.0 | 0.00 | 0.01 | 0.00 | 56 | 1015.8 |
| 20260831200043 | 73 | 194 | 2.0 | 8.0 | 0.00 | 0.01 | 0.00 | 56 | 1015.8 |
| 20260831194613 | 75 | 150 | 2.0 | 9.0 | 0.00 | 0.01 | 0.00 | 50 | 1016.0 |
| 20260831193041 | 77 | 156 | 1.0 | 7.0 | 0.00 | 0.01 | 0.00 | 50 | 1016.2 |
| 20260831191540 | 78 | 115 | 2.0 | 8.0 | 0.00 | 0.01 | 0.00 | 41 | 1016.1 |
| 20260831190040 | 79 | 277 | 1.0 | 4.0 | 0.00 | 0.01 | 0.00 | 37 | 1016.2 |
| 20260831184554 | 78 | 148 | 0.0 | 4.0 | 0.00 | 0.01 | 0.00 | 39 | 1016.4 |
| 20260831183039 | 78 | 163 | 1.0 | 7.0 | 0.00 | 0.01 | 0.00 | 41 | 1016.3 |
| 20260831181533 | 78 | 178 | 1.0 | 4.0 | 0.00 | 0.01 | 0.00 | 42 | 1016.5 |
| 20260831180034 | 78 | 26 | 2.0 | 5.0 | 0.00 | 0.01 | 0.00 | 36 | 1016.6 |
| 20260831174530 | 77 | 309 | 0.0 | 5.0 | 0.00 | 0.01 | 0.00 | 39 | 1016.7 |
| 20260831173033 | 76 | 144 | 1.0 | 5.0 | 0.00 | 0.01 | 0.00 | 36 | 1017.1 |
| 20260831171527 | 76 | 294 | 1.0 | 4.0 | 0.00 | 0.01 | 0.00 | 36 | 1017.1 |
| 20260831170025 | 75 | 240 | 0.0 | 5.0 | 0.00 | 0.01 | 0.00 | 37 | 1017.4 |
| 20260831164524 | 75 | 300 | 0.0 | 5.0 | 0.00 | 0.01 | 0.00 | 40 | 1017.4 |
| 20260831163024 | 74 | 59 | 2.0 | 5.0 | 0.00 | 0.01 | 0.00 | 38 | 1017.7 |
| 20260831161522 | 74 | 132 | 1.0 | 8.0 | 0.00 | 0.01 | 0.00 | 42 | 1017.9 |
| 20260831160027 | 74 | 127 | 1.0 | 4.0 | 0.00 | 0.01 | 0.00 | 42 | 1018.0 |
| 20260831154519 | 73 | 109 | 0.0 | 4.0 | 0.00 | 0.01 | 0.00 | 48 | 1018.0 |
| 20260831153015 | 72 | 348 | 2.0 | 5.0 | 0.00 | 0.01 | 0.00 | 45 | 1018.1 |
| 20260831151513 | 71 | 79 | 1.0 | 10.0 | 0.00 | 0.01 | 0.00 | 49 | 1018.2 |
| 20260831150015 | 70 | 96 | 1.0 | 9.0 | 0.00 | 0.01 | 0.00 | 51 | 1018.3 |
| 20260831144517 | 70 | 9 | 2.0 | 7.0 | 0.00 | 0.01 | 0.00 | 52 | 1018.5 |
| 20260831143007 | 69 | 5 | 2.0 | 5.0 | 0.00 | 0.01 | 0.00 | 51 | 1018.7 |
| 20260831141503 | 68 | 50 | 2.0 | 7.0 | 0.00 | 0.01 | 0.00 | 53 | 1018.8 |
| 20260831140108 | 67 | 19 | 1.0 | 6.0 | 0.00 | 0.01 | 0.00 | 59 | 1018.7 |
| 20260831134600 | 65 | 43 | 3.0 | 9.0 | 0.00 | 0.01 | 0.00 | 60 | 1018.7 |
| 20260831133055 | 65 | 52 | 3.0 | 5.0 | 0.00 | 0.01 | 0.00 | 64 | 1018.5 |
| 20260831131552 | 65 | 28 | 2.0 | 4.0 | 0.00 | 0.01 | 0.00 | 68 | 1018.4 |
| 20260831130053 | 64 | 63 | 1.0 | 5.0 | 0.00 | 0.01 | 0.00 | 68 | 1018.4 |
| 20260831124551 | 65 | 44 | 1.0 | 3.0 | 0.00 | 0.01 | 0.00 | 70 | 1018.3 |
| 20260831123048 | 64 | 339 | 1.0 | 3.0 | 0.00 | 0.01 | 0.00 | 71 | 1018.3 |
| 20260831121544 | 61 | 296 | 0.0 | 2.0 | 0.00 | 0.01 | 0.00 | 83 | 1018.2 |
| 20260831120041 | 56 | 297 | 0.0 | 2.0 | 0.00 | 0.01 | 0.00 | 89 | 1018.1 |
| 20260831114541 | 54 | 287 | 0.0 | 1.0 | 0.00 | 0.01 | 0.00 | 90 | 1018.1 |
| 20260831113040 | 53 | 287 | 0.0 | 1.0 | 0.00 | 0.01 | 0.00 | 90 | 1018.1 |
| 20260831111602 | 52 | 287 | 0.0 | 1.0 | 0.00 | 0.01 | 0.00 | 89 | 1018.1 |
| 20260831110050 | 52 | 287 | 0.0 | 1.0 | 0.00 | 0.01 | 0.00 | 89 | 1017.9 |
| 20260831104535 | 52 | 287 | 0.0 | 1.0 | 0.00 | 0.01 | 0.00 | 88 | 1017.8 |
| 20260831103033 | 51 | 287 | 0.0 | 1.0 | 0.00 | 0.01 | 0.00 | 88 | 1017.6 |
| 20260831101531 | 52 | 287 | 0.0 | 0.0 | 0.00 | 0.01 | 0.00 | 88 | 1017.5 |
| 20260831100028 | 52 | 287 | 0.0 | 1.0 | 0.00 | 0.01 | 0.00 | 87 | 1017.5 |
| 20260831094529 | 53 | 287 | 0.0 | 1.0 | 0.00 | 0.01 | 0.00 | 87 | 1017.2 |
| 20260831093024 | 54 | 287 | 0.0 | 2.0 | 0.00 | 0.01 | 0.00 | 87 | 1017.1 |
| 20260831091521 | 54 | 287 | 0.0 | 1.0 | 0.00 | 0.01 | 0.00 | 87 | 1017.0 |
| 20260831090020 | 54 | 287 | 0.0 | 1.0 | 0.00 | 0.01 | 0.00 | 87 | 1016.9 |
| 20260831084532 | 54 | 288 | 0.0 | 2.0 | 0.00 | 0.01 | 0.00 | 87 | 1016.6 |
| 20260831083016 | 54 | 284 | 0.0 | 2.0 | 0.00 | 0.01 | 0.00 | 87 | 1016.6 |
| 20260831081521 | 55 | 285 | 0.0 | 1.0 | 0.00 | 0.01 | 0.00 | 87 | 1016.5 |
| 20260831080011 | 55 | 285 | 0.0 | 0.0 | 0.00 | 0.01 | 0.00 | 86 | 1016.5 |
| 20260831074529 | 56 | 285 | 0.0 | 1.0 | 0.00 | 0.01 | 0.00 | 86 | 1016.3 |
| 20260831073011 | 57 | 285 | 0.0 | 3.0 | 0.00 | 0.01 | 0.00 | 86 | 1016.3 |
| 20260831071505 | 57 | 254 | 0.0 | 2.0 | 0.00 | 0.01 | 0.00 | 87 | 1016.3 |
| 20260831070004 | 57 | 259 | 0.0 | 2.0 | 0.00 | 0.01 | 0.00 | 87 | 1016.1 |
| 20260831064507 | 57 | 300 | 0.0 | 3.0 | 0.00 | 0.01 | 0.00 | 87 | 1016.0 |
| 20260831063001 | 56 | 319 | 0.0 | 2.0 | 0.00 | 0.01 | 0.00 | 87 | 1015.8 |
| 20260831061600 | 56 | 49 | 0.0 | 2.0 | 0.00 | 0.01 | 0.00 | 87 | 1015.7 |
| 20260831060112 | 56 | 22 | 0.0 | 2.0 | 0.00 | 0.01 | 0.00 | 87 | 1015.6 |
| 20260831054556 | 56 | 41 | 0.0 | 2.0 | 0.00 | 0.01 | 0.00 | 87 | 1015.5 |
| 20260831053053 | 57 | 41 | 0.0 | 2.0 | 0.00 | 0.01 | 0.00 | 87 | 1015.5 |
| 20260831051552 | 57 | 41 | 0.0 | 2.0 | 0.00 | 0.01 | 0.00 | 87 | 1015.4 |
| 20260831050103 | 57 | 41 | 0.0 | 1.0 | 0.00 | 0.01 | 0.00 | 86 | 1015.1 |
| 20260831044547 | 58 | 41 | 0.0 | 1.0 | 0.00 | 0.01 | 0.00 | 86 | 1015.2 |
| 20260831043049 | 58 | 41 | 0.0 | 1.0 | 0.00 | 0.01 | 0.00 | 84 | 1015.1 |
| 20260831041547 | 59 | 41 | 0.0 | 1.0 | 0.00 | 0.01 | 0.00 | 83 | 1015.2 |
| 20260831040048 | 60 | 41 | 0.0 | 2.0 | 0.00 | 0.01 | 0.00 | 80 | 1015.2 |